Terminal Aerodrome Forecast
Issued by NWS Sterling, VA

Current Version | Previous Version | Graphics & Text | Print | Product List | Glossary On
Versions: 1 2 3 4 5 6 7 8 9 10 11 12 13 14 15 16 17 18 19 20 21 22 23 24 25 26
000
FTUS41 KLWX 240200 AAA
TAFIAD
TAF AMD
KIAD 240224Z 2402/2506 VRB04KT 4SM -RAPL OVC008
     FM240600 36006KT 2SM -SNPL OVC006
     FM241400 34008KT 2SM -RASN OVC003
     FM241800 30010G18KT P6SM OVC012
     FM242000 30012G20KT P6SM BKN060
     FM250000 29008KT P6SM FEW250=

USA.gov is the U.S. government's official web portal to all federal, state and local government web resources and services.